Regional Weather Roundup
Issued by NWS

Home | Current Version | Previous Version | Text Only | Print | Product List | Glossary On
Versions: 1 2 3 4 5 6 7 8 9 10 11 12 13 14 15 16 17 18 19 20 21 22 23 24 25 26 27 28 29 30 31 32 33 34 35 36 37 38 39 40 41 42 43 44 45 46 47 48 49 50
000
ASUS43 KDMX 270406
RWRIA

WEATHER ROUNDUP FOR IOWA
NATIONAL WEATHER SERVICE DES MOINES IA
1100 PM CDT FRI MAY 26 2017

NOTE: "FAIR" INDICATES FEW OR NO CLOUDS BELOW 12,000 FEET WITH NO
SIGNIFICANT WEATHER AND/OR OBSTRUCTIONS TO VISIBILITY.

* - THESE STATIONS ARE NOT NWS STATIONS...THUS NOT UNDER NWS
QUALITY CONTROL.  THEY ALSO DO NOT REPORT WEATHER SUCH
AS PRECIPITATION OR FOG.

IAZ001>003-012>014-020>022-031>034-043>046-270500-
   NORTHWEST IOWA

CITY           SKY/WX    TMP DP  RH WIND       PRES   REMARKS
CARROLL *      CLEAR     64  48  55 NW5       29.88R
CHEROKEE *     CLEAR     60  43  53 N5        29.89S
DENISON *      CLEAR     64  46  52 N6        29.89S
LE MARS *      CLEAR     55  48  76 CALM      29.90S
ORANGE CITY *  CLEAR     64  45  48 CALM      29.90S
SHELDON *      CLEAR     61  41  48 W6        29.87F
SIOUX CITY     CLEAR     60  47  61 N6        29.88S
SPENCER        CLEAR     58  46  64 W6        29.90R
STORM LAKE *   CLEAR     64  43  45 NW9       29.90R
$$

IAZ055>058-069>071-079>083-090>094-270500-
   SOUTHWEST IOWA

CITY           SKY/WX    TMP DP  RH WIND       PRES   REMARKS
ATLANTIC *     CLEAR     61  54  77 CALM      29.86S
AUDUBON *      CLEAR     57  52  82 CALM      29.89S
CLARINDA *     PTCLDY    66  57  72 NE3       29.87S
COUNCIL BLFS * CLEAR     68  50  52 N6        29.87R
CRESTON *      CLEAR     68  54  60 N5        29.89R
HARLAN  *      CLEAR     61  50  67 N6        29.91S
LAMONI         PTCLDY    72  61  68 CALM      29.86R
RED OAK *      CLEAR     64  52  63 CALM      29.86S
SHENANDOAH *   CLEAR     68  52  56 CALM      29.86S
$$

IAZ047>049-059>061-072>074-084-270500-
   CENTRAL IOWA

CITY           SKY/WX    TMP DP  RH WIND       PRES   REMARKS
AMES           CLEAR     66  62  87 CALM      29.86R
ANKENY *       PTCLDY    66  61  82 CALM      29.87R
BOONE *        CLEAR     68  64  88 S3        29.87R
CHARITON *     CLEAR     66  63  88 E6        29.86R
DES MOINES     PTCLDY    69  63  81 SE5       29.86R
GRINNELL*      PTCLDY    61  58  91 SE6       29.88R
KNOXVILLE *    CLEAR     64  61  88 E7        29.85R
MARSHALLTOWN   CLEAR     62  60  93 SE6       29.86R
NEWTON *       CLEAR     63  61  94 SE6       29.86R
PELLA *        CLEAR     64  61  91 SE5       29.87R
PERRY *          N/A     65  48  53 W6        29.86R
$$

IAZ004>006-015-016-023>025-035-036-270500-
   NORTH CENTRAL IOWA

CITY           SKY/WX    TMP DP  RH WIND       PRES   REMARKS
ALGONA *       CLEAR     64  46  52 NW5       29.88R
CLARION *      CLEAR     66  48  52 NE8       29.87R
ESTHERVILLE    CLOUDY    58  49  72 NW9       29.88R
FORT DODGE *   CLEAR     61  46  59 CALM      29.88R
MASON CITY     CLEAR     63  57  81 SW7       29.88R
FOREST CITY *    N/A     59  41  51 E3        29.87R
WEBSTER CITY * CLEAR     64  48  55 NW9       29.85R
IOWA FALLS *     N/A     64  60  86 S6        29.87R
$$

IAZ007>011-017>019-026>030-037>042-050>054-066-270500-
   NORTHEAST IOWA

CITY           SKY/WX    TMP DP  RH WIND       PRES   REMARKS
CEDAR RAPIDS   CLEAR     57  57 100 SE5       29.86R FOG
CHARLES CITY * CLEAR     61  61 100 S7        29.86R
CLINTON *      CLOUDY    60  58  92 E7        29.87R
DECORAH *      PTCLDY    59  57  94 SE6       29.85R
DUBUQUE        CLEAR     58  56  93 SE3       29.88R
MONTICELLO *   CLEAR     59  57  94 CALM      29.87S FOG
OELWEIN *      CLEAR     57  57 100 SE8       29.87R
WATERLOO       CLEAR     59  56  89 S3        29.85R
$$

IAZ064-065-067-068-078-270500-
   EAST CENTRAL IOWA

CITY           SKY/WX    TMP DP  RH WIND       PRES   REMARKS
DAVENPORT      CLOUDY    61  58  90 NE7       29.87R
IOWA CITY      CLEAR     59  57  93 CALM      29.88R
MT. PLEASANT * CLEAR     60  60  98 CALM      29.87S
MUSCATINE *    CLEAR     61  59  94 W5        29.87R
QUAD CITIES    PTCLDY    62  57  83 NE5       29.86R HAZE
$$

IAZ062-063-075>077-085>089-095>099-270500-
   SOUTHEAST IOWA

CITY           SKY/WX    TMP DP  RH WIND       PRES   REMARKS
BURLINGTON     CLEAR     61  60  97 N5        29.86R
FAIRFIELD *    CLEAR     61  59  94 CALM      29.86S
FORT MADISON * CLEAR     63  61  94 CALM      29.88R
KEOKUK *       CLEAR     63  61  94 CALM      29.86R
OSKALOOSA *      N/A     61  59  93 SE5       29.87S
CENTERVILLE *    N/A     64  63  94 CALM      29.87S
OTTUMWA        CLEAR     63  61  93 E6        29.86R
WASHINGTON *   FOG       57  57 100 CALM      29.88R VSB<1/4
$$

ABBREVIATIONS USED IN REMARKS
   TC - TEMPERATURES IN CELSIUS
  WCI - WIND CHILL INDEX
   HX - HEAT INDEX
  VSB - VISIBILITY
$$





USA.gov is the U.S. government's official web portal to all federal, state and local government web resources and services.